Location: Mahannah Oil Field
(37.4664°N, 96.6003°W)
Time: 01:10:31
(UTC+00:00)

A-11 Canister half - Pass Details

Date: 24 January 2021
Orbit: 1525 x 1684 km, 47.3° (Epoch: 03 March)

Event Time Altitude Azimuth Distance (km) Brightness Sun altitude
Rises 00:49:14 0° 291° (WNW) 4,721 12.5 -13.6°
Reaches altitude 10° 00:52:26 10° 297° (WNW) 3,755 11.8 -14.2°
Maximum altitude 01:01:39 50° 11° (N) 1,955 9.4 -16.0°
Enters shadow 01:07:56 23° 76° (ENE) 2,961 9.8 -17.2°
